STARLINK-1876, 47161

Orbit data source: Space-Track

STARLINK-1876, 47161 is a payload satellite owned by SpaceX/Seattle (US) in LEO that was launched on Wed, 25 Nov 2020 UTC via an FALCON 9 launch vehicle from the Air Force Eastern Test Range (AFETR). Payload-class satellites include a variety of spacecraft equipped with specific instruments for various scientific and technological missions. These include communications satellites like Starlink; space stations such as the ISS; scientific satellites like the Hubble; Earth observation satellites from companies like Planet Labs, Umbra, and HawkEye 360; GPS; miniature CubeSats for education and research; and military/defense satellites.

Not visible in the next 10 days
Identifier
47161, 2020-088AR
Orbit
LEO
Country
Flag of USUS
Related business
Manufacturer
SpaceX/Seattle
Mission
Partially operational Commercial Communications
Bus & Motor
STARLINK, Unknown motor
Mass
260 kg wet, ~248 kg dry
Launch date (UTC)
2020-11-25 (6 years ago)
Launch vehicle
FALCON 9
Launch site
Air Force Eastern Test Range (AFETR)
Object type
Payload
Rocket body
Debris
Shape & HBR
Box + 1 Pan, 10.1 m
Radar Cross Section
13.562 m², Large (>1 m²)

Expand to show TLE details & history
Last TLE update: 2 days ago

TLE from 2 days ago
0 STARLINK-1876
1 47161U 20088AR  26171.50003471  .00363731  64866-4  82662-3 0  9998
2 47161  53.0373 118.4802 0003180  68.2592 126.6525 15.96990101  6004
Epoch: 2026-06-20T12:00Z
TLE epoch observation values (Epoch: 2026-06-20T12:00:02.998Z)
Latitude
-12.04019°
Longitude
-141.06248°
Altitude
287.284 km
Speed
7.735 km/s
True Right ascension
20h 30m 39s
True Declination
-11° 57' 55"
Sunlit
Object was in full shadow at epoch
Visualization orbit readout
Latitude
Unknown
Longitude
Unknown
Altitude
Unknown
Speed
Unknown
Apparent Right ascension
Unknown
Apparent Declination
Unknown
Sunlit
N/A
Visualization observer readout
Local Sidereal Time
21:25:26
Azimuth
Unknown
Elevation
Unknown
Doppler factor
Unknown
Orbital elements
Apogee altitude
285.177 km
Perigee altitude
280.941 km
Semi-major axis
6,661.196 km
Eccentricity
0.00032
Inclination
53.0373°
RAAN
118.4802°
Arg. of periapsis
68.2592°
True anomaly
126.68173°
Mean anomaly
126.6525°
Eccentric anomaly
126.66711°
Mean motion
3.99222 °/min
Orbital period
90.18 mins
BSTAR
0.00082662
Loading maneuver chart data...
Computing Atmospheric mass density...

Documentation

Showing up to 5 results
|